QPF
0.07 0.06 0.05 0.07 0.08 0.09 0.11 0.14 0.13 0.09 0.07 0.08 0.09 0.11 0.15 0.18 0.21 0.22 0.22 0.22 0.20 0.19 0.19 0.16 0.13 0.10 0.08 0.08 0.07 0.06 0.05 0.06 0.07 0.08 0.09 0.09 0.09 0.09
0.06 0.05 0.05 0.07 0.08 0.07 0.07 0.09 0.10 0.09 0.07 0.09 0.09 0.10 0.10 0.10 0.13 0.15 0.20 0.23 0.23 0.24 0.22 0.17 0.12 0.09 0.07 0.07 0.06 0.07 0.07 0.08 0.09 0.09 0.10 0.11 0.11 0.10
0.08 0.06 0.05 0.05 0.06 0.06 0.06 0.07 0.07 0.07 0.05 0.04 0.04 0.03 0.04 0.05 0.07 0.07 0.06 0.08 0.11 0.12 0.12 0.12 0.12 0.11 0.11 0.11 0.11 0.12 0.12 0.13 0.14 0.13 0.12 0.11 0.11 0.11
0.08 0.07 0.05 0.04 0.05 0.05 0.05 0.05 0.05 0.05 0.04 0.03 0.03 0.03 0.03 0.05 0.07 0.05 0.05 0.05 0.07 0.10 0.11 0.12 0.13 0.12 0.11 0.11 0.12 0.13 0.14 0.13 0.12 0.11 0.10 0.11 0.11 0.12
0.07 0.06 0.05 0.05 0.05 0.04 0.03 0.02 0.03 0.03 0.04 0.03 0.02 0.03 0.04 0.05 0.05 0.04 0.05 0.04 0.03 0.05 0.05 0.08 0.10 0.10 0.09 0.09 0.11 0.12 0.12 0.11 0.10 0.09 0.09 0.10 0.11 0.11
0.09 0.08 0.07 0.06 0.05 0.04 0.03 0.02 0.02 0.03 0.05 0.03 0.01 0.02 0.02 0.04 0.04 0.04 0.04 0.04 0.06 0.05 0.04 0.05 0.08 0.07 0.06 0.06 0.07 0.06 0.07 0.07 0.08 0.08 0.08 0.08 0.09 0.09
0.08 0.07 0.07 0.07 0.07 0.06 0.04 0.03 0.03 0.03 0.03 0.02 0.02 0.03 0.03 0.04 0.03 0.03 0.03 0.05 0.05 0.03 0.03 0.04 0.06 0.06 0.05 0.05 0.05 0.05 0.05 0.05 0.06 0.06 0.06 0.06 0.06 0.06
0.06 0.06 0.06 0.07 0.07 0.06 0.05 0.04 0.04 0.03 0.03 0.02 0.02 0.03 0.03 0.03 0.04 0.04 0.04 0.04 0.03 0.02 0.03 0.03 0.04 0.05 0.05 0.05 0.05 0.04 0.04 0.04 0.04 0.04 0.04 0.04 0.05 0.05
0.04 0.04 0.05 0.06 0.06 0.06 0.05 0.03 0.03 0.03 0.03 0.03 0.02 0.01 0.01 0.01 0.02 0.03 0.04 0.03 0.02 0.04 0.05 0.03 0.04 0.04 0.03 0.03 0.04 0.04 0.04 0.04 0.05 0.05 0.05 0.05 0.04 0.04
0.02 0.03 0.03 0.03 0.04 0.05 0.03 0.02 0.02 0.02 0.03 0.03 0.02 0.02 0.01 0.01 0.02 0.02 0.03 0.03 0.03 0.04 0.05 0.03 0.02 0.02 0.03 0.03 0.04 0.03 0.04 0.03 0.04 0.04 0.04 0.04 0.04 0.03
0.02 0.02 0.03 0.03 0.03 0.04 0.03 0.02 0.02 0.02 0.03 0.03 0.02 0.02 0.02 0.01 0.01 0.01 0.02 0.02 0.02 0.02 0.02 0.02 0.02 0.02 0.02 0.03 0.04 0.04 0.04 0.04 0.04 0.05 0.06 0.06 0.05 0.05
0.02 0.03 0.03 0.03 0.02 0.02 0.03 0.02 0.02 0.02 0.03 0.03 0.03 0.03 0.02 0.02 0.02 0.01 0.01 0.02 0.02 0.01 0.01 0.02 0.02 0.03 0.04 0.04 0.05 0.07 0.07 0.07 0.07 0.08 0.08 0.08 0.07 0.06
0.03 0.03 0.02 0.03 0.02 0.02 0.02 0.02 0.02 0.02 0.02 0.02 0.02 0.02 0.02 0.02 0.02 0.02 0.02 0.02 0.02 0.02 0.02 0.03 0.04 0.05 0.06 0.06 0.07 0.07 0.07 0.09 0.10 0.12 0.14 0.15 0.15 0.13
0.03 0.02 0.02 0.02 0.02 0.02 0.02 0.02 0.02 0.02 0.02 0.02 0.02 0.01 0.01 0.01 0.02 0.02 0.02 0.02 0.02 0.02 0.03 0.03 0.03 0.03 0.04 0.05 0.07 0.08 0.08 0.08 0.09 0.10 0.11 0.13 0.15 0.16
0.01 0.02 0.02 0.02 0.02 0.01 0.02 0.02 0.02 0.02 0.01 0.01 0.01 0.02 0.02 0.02 0.02 0.02 0.02 0.03 0.03 0.03 0.03 0.02 0.02 0.02 0.02 0.03 0.04 0.05 0.05 0.05 0.05 0.05 0.07 0.08 0.08 0.09
0.02 0.02 0.01 0.01 0.01 0.01 0.01 0.01 0.01 0.01 0.01 0.01 0.01 0.01 0.01 0.01 0.01 0.01 0.01 0.02 0.03 0.04 0.04 0.03 0.02 0.02 0.02 0.03 0.03 0.04 0.03 0.03 0.02 0.03 0.03 0.03 0.04 0.05
0.02 0.01 0.01 0.01 0.01 0.01 0.01 0.02 0.02 0.02 0.01 0.01 0.01 0.01 0.01 0.01 0.01 0.01 0.01 0.01 0.01 0.02 0.02 0.02 0.02 0.02 0.02 0.02 0.02 0.02 0.02 0.02 0.02 0.02 0.02 0.03 0.03 0.03
0.02 0.01 0.02 0.01 0.01 0.01 0.01 0.01 0.02 0.02 0.02 0.02 0.01 0.01 0.01 0.01 0.01 0.01 0.01 0.01 0.00 0.00 0.00 0.01 0.01 0.01 0.02 0.03 0.03 0.03 0.03 0.02 0.01 0.01 0.01 0.02 0.03 0.03
0.02 0.02 0.02 0.02 0.02 0.02 0.01 0.01 0.01 0.01 0.02 0.02 0.02 0.01 0.01 0.01 0.01 0.01 0.01 0.01 0.01 0.01 0.01 0.01 0.01 0.01 0.01 0.02 0.03 0.03 0.03 0.02 0.02 0.02 0.02 0.01 0.01 0.01
0.02 0.02 0.03 0.03 0.03 0.02 0.02 0.02 0.02 0.02 0.02 0.02 0.02 0.02 0.02 0.02 0.02 0.01 0.01 0.01 0.01 0.01 0.02 0.01 0.01 0.01 0.01 0.01 0.02 0.02 0.02 0.02 0.02 0.02 0.02 0.01 0.01 0.00
0.02 0.01 0.02 0.02 0.03 0.03 0.02 0.02 0.02 0.02 0.02 0.03 0.03 0.02 0.02 0.02 0.02 0.01 0.01 0.01 0.01 0.01 0.02 0.02 0.02 0.02 0.02 0.03 0.02 0.02 0.02 0.02 0.02 0.02 0.01 0.01 0.00 0.00
0.03 0.02 0.03 0.03 0.03 0.03 0.02 0.02 0.02 0.02 0.02 0.02 0.02 0.02 0.02 0.01 0.01 0.01 0.01 0.01 0.01 0.01 0.01 0.01 0.01 0.01 0.02 0.03 0.02 0.02 0.03 0.03 0.02 0.02 0.01 0.01 0.01 0.01
0.03 0.03 0.03 0.03 0.03 0.02 0.02 0.02 0.01 0.01 0.01 0.01 0.01 0.01 0.01 0.01 0.01 0.02 0.01 0.01 0.01 0.00 0.00 0.01 0.01 0.01 0.01 0.01 0.02 0.01 0.01 0.01 0.01 0.01 0.01 0.01 0.01 0.01
MSLP
1020.81 1020.84 1021.01 1021.30 1021.69 1022.15 1022.65 1023.16 1023.65 1024.10 1024.50 1024.82 1025.05 1025.20 1025.24 1025.20 1025.08 1024.93 1024.76 1024.61 1024.49 1024.43 1024.41 1024.41 1024.40 1024.35 1024.22 1023.99 1023.66 1023.26 1022.82 1022.37 1021.97 1021.63 1021.38 1021.22 1021.11 1021.02
1021.78 1021.74 1021.82 1021.99 1022.25 1022.59 1022.99 1023.42 1023.87 1024.31 1024.72 1025.09 1025.38 1025.59 1025.69 1025.69 1025.61 1025.47 1025.30 1025.14 1025.02 1024.95 1024.93 1024.96 1024.98 1024.98 1024.92 1024.76 1024.52 1024.19 1023.81 1023.41 1023.04 1022.72 1022.46 1022.28 1022.13 1021.99
1022.78 1022.70 1022.69 1022.76 1022.90 1023.12 1023.41 1023.76 1024.16 1024.58 1025.00 1025.41 1025.75 1026.01 1026.16 1026.21 1026.16 1026.03 1025.86 1025.69 1025.55 1025.46 1025.42 1025.44 1025.47 1025.49 1025.46 1025.35 1025.16 1024.90 1024.58 1024.23 1023.90 1023.61 1023.38 1023.20 1023.05 1022.90
1023.79 1023.68 1023.62 1023.61 1023.66 1023.78 1023.97 1024.24 1024.58 1024.97 1025.40 1025.81 1026.19 1026.49 1026.68 1026.77 1026.74 1026.63 1026.46 1026.27 1026.10 1025.97 1025.90 1025.88 1025.89 1025.89 1025.86 1025.77 1025.61 1025.37 1025.09 1024.79 1024.50 1024.25 1024.05 1023.90 1023.78 1023.67
1024.78 1024.68 1024.59 1024.53 1024.52 1024.56 1024.67 1024.87 1025.14 1025.49 1025.89 1026.30 1026.69 1027.01 1027.23 1027.34 1027.33 1027.23 1027.05 1026.85 1026.65 1026.49 1026.38 1026.31 1026.27 1026.24 1026.17 1026.06 1025.89 1025.66 1025.39 1025.11 1024.84 1024.63 1024.46 1024.35 1024.28 1024.22
1025.73 1025.65 1025.57 1025.48 1025.42 1025.41 1025.45 1025.58 1025.80 1026.09 1026.45 1026.83 1027.20 1027.52 1027.75 1027.87 1027.87 1027.78 1027.61 1027.40 1027.18 1026.99 1026.84 1026.73 1026.64 1026.55 1026.44 1026.29 1026.08 1025.83 1025.54 1025.26 1025.00 1024.79 1024.65 1024.57 1024.54 1024.53
1026.59 1026.55 1026.48 1026.40 1026.31 1026.26 1026.26 1026.32 1026.47 1026.70 1027.00 1027.33 1027.66 1027.95 1028.16 1028.28 1028.30 1028.22 1028.07 1027.87 1027.66 1027.46 1027.28 1027.14 1027.01 1026.87 1026.71 1026.50 1026.25 1025.95 1025.64 1025.32 1025.04 1024.82 1024.68 1024.61 1024.61 1024.63
1027.33 1027.32 1027.28 1027.20 1027.12 1027.04 1027.00 1027.01 1027.10 1027.26 1027.48 1027.74 1028.01 1028.26 1028.45 1028.56 1028.58 1028.52 1028.39 1028.23 1028.04 1027.86 1027.69 1027.53 1027.38 1027.21 1027.01 1026.76 1026.46 1026.12 1025.75 1025.40 1025.08 1024.82 1024.65 1024.56 1024.55 1024.58
1027.90 1027.93 1027.91 1027.86 1027.78 1027.69 1027.62 1027.59 1027.62 1027.71 1027.85 1028.04 1028.24 1028.44 1028.59 1028.69 1028.72 1028.68 1028.59 1028.46 1028.32 1028.18 1028.04 1027.90 1027.76 1027.58 1027.36 1027.08 1026.75 1026.36 1025.95 1025.54 1025.17 1024.86 1024.64 1024.50 1024.44 1024.44
1028.30 1028.35 1028.36 1028.33 1028.27 1028.18 1028.10 1028.04 1028.01 1028.04 1028.12 1028.23 1028.37 1028.51 1028.62 1028.70 1028.73 1028.72 1028.66 1028.59 1028.50 1028.41 1028.32 1028.22 1028.11 1027.95 1027.73 1027.45 1027.10 1026.69 1026.24 1025.79 1025.36 1024.99 1024.70 1024.49 1024.36 1024.30
1028.54 1028.61 1028.64 1028.64 1028.59 1028.52 1028.43 1028.35 1028.30 1028.28 1028.30 1028.36 1028.44 1028.52 1028.60 1028.66 1028.68 1028.69 1028.67 1028.63 1028.60 1028.56 1028.52 1028.48 1028.40 1028.28 1028.09 1027.82 1027.47 1027.06 1026.60 1026.11 1025.64 1025.21 1024.85 1024.56 1024.35 1024.21
1028.66 1028.74 1028.80 1028.82 1028.79 1028.73 1028.65 1028.57 1028.50 1028.45 1028.44 1028.45 1028.48 1028.53 1028.58 1028.61 1028.63 1028.64 1028.64 1028.64 1028.64 1028.64 1028.65 1028.64 1028.61 1028.52 1028.37 1028.13 1027.81 1027.41 1026.95 1026.46 1025.96 1025.48 1025.06 1024.71 1024.42 1024.19
1028.71 1028.81 1028.88 1028.92 1028.91 1028.87 1028.80 1028.72 1028.65 1028.60 1028.56 1028.55 1028.55 1028.57 1028.59 1028.60 1028.61 1028.61 1028.61 1028.61 1028.62 1028.65 1028.68 1028.70 1028.70 1028.64 1028.53 1028.33 1028.04 1027.67 1027.23 1026.75 1026.24 1025.75 1025.29 1024.88 1024.53 1024.23
1028.76 1028.86 1028.94 1028.98 1028.99 1028.96 1028.90 1028.83 1028.76 1028.71 1028.67 1028.65 1028.64 1028.64 1028.64 1028.63 1028.61 1028.59 1028.57 1028.56 1028.56 1028.58 1028.61 1028.64 1028.64 1028.61 1028.53 1028.36 1028.12 1027.78 1027.38 1026.92 1026.43 1025.94 1025.46 1025.02 1024.63 1024.28
1028.81 1028.92 1028.99 1029.03 1029.04 1029.01 1028.95 1028.89 1028.83 1028.78 1028.74 1028.73 1028.72 1028.71 1028.69 1028.66 1028.62 1028.57 1028.52 1028.48 1028.44 1028.43 1028.43 1028.44 1028.44 1028.42 1028.35 1028.21 1028.00 1027.70 1027.34 1026.92 1026.46 1025.98 1025.51 1025.07 1024.66 1024.29
1028.87 1028.97 1029.04 1029.06 1029.04 1029.00 1028.94 1028.87 1028.82 1028.77 1028.75 1028.74 1028.73 1028.73 1028.70 1028.66 1028.60 1028.51 1028.42 1028.33 1028.25 1028.19 1028.15 1028.12 1028.10 1028.06 1027.99 1027.87 1027.68 1027.43 1027.10 1026.72 1026.30 1025.85 1025.40 1024.96 1024.56 1024.18
1028.90 1028.98 1029.02 1029.02 1028.97 1028.90 1028.82 1028.75 1028.69 1028.65 1028.64 1028.64 1028.65 1028.65 1028.62 1028.57 1028.49 1028.37 1028.24 1028.10 1027.97 1027.85 1027.76 1027.69 1027.63 1027.57 1027.49 1027.37 1027.20 1026.96 1026.67 1026.33 1025.94 1025.53 1025.10 1024.69 1024.29 1023.93
1028.83 1028.89 1028.90 1028.86 1028.78 1028.68 1028.57 1028.48 1028.41 1028.38 1028.38 1028.40 1028.42 1028.43 1028.41 1028.35 1028.25 1028.12 1027.95 1027.77 1027.59 1027.43 1027.28 1027.17 1027.07 1026.97 1026.87 1026.75 1026.58 1026.37 1026.10 1025.78 1025.42 1025.04 1024.64 1024.24 1023.87 1023.51
1028.60 1028.64 1028.62 1028.54 1028.42 1028.29 1028.16 1028.05 1027.98 1027.96 1027.96 1027.99 1028.03 1028.05 1028.04 1027.98 1027.88 1027.72 1027.54 1027.33 1027.11 1026.91 1026.72 1026.57 1026.43 1026.31 1026.19 1026.06 1025.89 1025.68 1025.43 1025.13 1024.80 1024.44 1024.06 1023.68 1023.32 1022.97
1028.18 1028.19 1028.14 1028.03 1027.88 1027.72 1027.58 1027.46 1027.40 1027.37 1027.39 1027.44 1027.48 1027.52 1027.51 1027.46 1027.35 1027.19 1026.99 1026.76 1026.53 1026.30 1026.09 1025.91 1025.75 1025.61 1025.47 1025.33 1025.17 1024.97 1024.73 1024.44 1024.13 1023.78 1023.43 1023.06 1022.71 1022.37
1027.53 1027.53 1027.45 1027.32 1027.16 1026.99 1026.84 1026.73 1026.67 1026.65 1026.68 1026.74 1026.80 1026.84 1026.84 1026.79 1026.68 1026.52 1026.31 1026.08 1025.83 1025.59 1025.37 1025.18 1025.01 1024.87 1024.73 1024.59 1024.43 1024.24 1024.01 1023.75 1023.46 1023.14 1022.80 1022.45 1022.11 1021.78
1026.68 1026.66 1026.58 1026.44 1026.28 1026.11 1025.97 1025.87 1025.82 1025.82 1025.85 1025.92 1025.98 1026.02 1026.02 1025.97 1025.86 1025.70 1025.49 1025.26 1025.01 1024.78 1024.56 1024.38 1024.22 1024.08 1023.95 1023.82 1023.67 1023.50 1023.30 1023.07 1022.81 1022.52 1022.21 1021.89 1021.57 1021.26
1025.68 1025.64 1025.55 1025.42 1025.26 1025.11 1024.99 1024.91 1024.87 1024.88 1024.92 1024.98 1025.04 1025.07 1025.06 1025.00 1024.88 1024.72 1024.52 1024.29 1024.06 1023.84 1023.64 1023.47 1023.33 1023.21 1023.10 1022.99 1022.88 1022.74 1022.57 1022.38 1022.16 1021.92 1021.65 1021.38 1021.10 1020.82
Thickness
5738 5737 5735 5735 5733 5732 5729 5725 5717 5709 5709 5713 5715 5717 5717 5716 5715 5713 5712 5710 5709 5707 5706 5704 5703 5701 5699 5697 5695 5694 5692 5690 5688 5687 5686 5684 5682 5681
5735 5734 5733 5732 5731 5729 5727 5724 5721 5715 5708 5710 5712 5713 5713 5712 5711 5710 5708 5707 5705 5703 5701 5699 5698 5696 5694 5692 5690 5688 5686 5685 5683 5682 5680 5679 5677 5676
5732 5731 5729 5729 5727 5726 5724 5722 5719 5715 5708 5708 5709 5710 5708 5707 5706 5705 5703 5701 5699 5697 5696 5694 5692 5690 5688 5685 5683 5682 5680 5679 5677 5676 5674 5673 5671 5670
5727 5726 5724 5724 5722 5722 5720 5717 5715 5713 5708 5703 5703 5703 5702 5701 5700 5699 5698 5696 5694 5692 5690 5688 5686 5684 5681 5679 5677 5675 5673 5671 5670 5668 5667 5665 5664 5663
5723 5721 5719 5718 5717 5716 5715 5713 5711 5709 5705 5700 5697 5697 5696 5695 5693 5692 5691 5689 5688 5685 5683 5680 5678 5676 5674 5672 5669 5667 5665 5663 5661 5660 5658 5657 5655 5654
5719 5718 5716 5714 5712 5711 5709 5707 5705 5702 5699 5695 5692 5690 5688 5688 5686 5683 5681 5680 5678 5677 5674 5672 5670 5668 5666 5664 5661 5659 5657 5654 5652 5651 5649 5648 5646 5645
5714 5713 5712 5710 5709 5707 5705 5702 5699 5695 5692 5688 5685 5683 5680 5678 5676 5675 5672 5670 5669 5667 5665 5663 5661 5659 5657 5655 5652 5649 5647 5645 5643 5641 5639 5638 5636 5635
5708 5707 5706 5704 5703 5702 5700 5698 5695 5690 5685 5682 5678 5675 5673 5672 5670 5669 5664 5661 5658 5658 5655 5653 5651 5649 5647 5645 5643 5640 5638 5635 5633 5631 5630 5628 5626 5624
5702 5701 5701 5699 5697 5695 5693 5692 5688 5686 5683 5679 5673 5670 5668 5667 5664 5661 5657 5654 5650 5650 5647 5643 5641 5638 5637 5635 5633 5631 5629 5627 5625 5622 5620 5617 5615 5614
5698 5696 5694 5692 5690 5688 5686 5682 5679 5677 5675 5672 5669 5666 5665 5662 5660 5656 5652 5648 5644 5641 5639 5632 5630 5628 5627 5625 5623 5621 5619 5617 5615 5613 5611 5608 5605 5603
5692 5690 5688 5685 5683 5682 5679 5674 5671 5668 5667 5664 5662 5660 5658 5656 5653 5649 5643 5639 5633 5630 5629 5624 5620 5618 5616 5614 5612 5610 5608 5606 5604 5602 5601 5598 5596 5593
5685 5683 5681 5679 5676 5674 5671 5667 5662 5659 5657 5655 5653 5651 5648 5646 5644 5641 5636 5630 5625 5621 5620 5616 5612 5609 5605 5603 5601 5600 5597 5595 5593 5591 5589 5587 5585 5582
5676 5674 5672 5671 5669 5666 5663 5660 5656 5652 5649 5645 5642 5640 5638 5635 5633 5630 5627 5623 5618 5614 5612 5609 5604 5599 5595 5591 5590 5589 5586 5584 5582 5579 5577 5575 5573 5571
5668 5666 5664 5662 5660 5658 5654 5651 5648 5644 5640 5635 5632 5629 5626 5624 5623 5621 5618 5615 5612 5608 5605 5602 5596 5591 5586 5581 5578 5577 5575 5573 5570 5568 5565 5563 5561 5558
5661 5659 5656 5654 5651 5648 5645 5643 5639 5635 5630 5626 5622 5619 5617 5615 5613 5611 5608 5605 5602 5598 5595 5592 5589 5584 5579 5573 5569 5566 5563 5560 5558 5556 5553 5551 5549 5547
5653 5651 5648 5645 5642 5639 5636 5633 5630 5626 5622 5617 5613 5611 5609 5606 5603 5600 5596 5593 5589 5586 5584 5581 5578 5575 5569 5565 5560 5556 5553 5549 5548 5545 5542 5540 5537 5535
5644 5641 5638 5634 5630 5627 5625 5622 5619 5616 5613 5609 5605 5602 5599 5596 5592 5589 5586 5582 5578 5574 5571 5570 5567 5564 5560 5556 5550 5546 5543 5540 5538 5535 5532 5528 5526 5524
5635 5630 5626 5623 5620 5617 5614 5611 5609 5606 5603 5600 5596 5593 5589 5586 5582 5579 5575 5571 5567 5564 5561 5558 5555 5551 5547 5545 5542 5538 5534 5531 5528 5525 5522 5517 5515 5514
5626 5621 5616 5613 5610 5608 5605 5602 5599 5596 5594 5590 5587 5583 5580 5576 5573 5568 5565 5561 5557 5554 5551 5548 5544 5539 5534 5531 5531 5531 5526 5522 5519 5515 5512 5508 5506 5504
5616 5612 5608 5605 5602 5599 5596 5593 5590 5587 5584 5580 5577 5573 5570 5566 5562 5558 5555 5551 5547 5544 5540 5538 5535 5531 5527 5523 5521 5520 5519 5514 5510 5506 5502 5499 5497 5495
5607 5604 5601 5597 5594 5590 5587 5584 5581 5577 5574 5570 5567 5563 5560 5556 5552 5549 5545 5542 5538 5534 5530 5528 5527 5525 5520 5515 5511 5509 5509 5507 5503 5498 5494 5489 5486 5483
5599 5595 5592 5589 5585 5582 5578 5574 5571 5568 5564 5561 5558 5554 5551 5547 5543 5540 5536 5532 5529 5525 5522 5520 5517 5514 5510 5506 5502 5499 5497 5497 5495 5492 5488 5484 5478 5474
5590 5587 5584 5580 5577 5573 5570 5566 5562 5559 5556 5552 5549 5545 5542 5539 5535 5532 5528 5524 5520 5517 5513 5509 5506 5503 5499 5496 5492 5489 5488 5486 5483 5481 5479 5477 5474 5471